Date String (YYYY-MM-DD hh:mm:ss) UTC,Instrument flags,Ambient pressure (hPa),Sample flow (lpm),Bypass flow (lpm),Sample temperature (°C),Ambient temperature (°C),ASC tube jacket temperature (°C),LED temperature (°C),Box temperature (°C),Sample RH (%),Span deviation,Mass concentration (μg/m³),Mass concentration (μg/m³),Mass concentration (μg/m³)
DateTimeUTC,F1_M11,P_M11,Q1_M11,Q2_M11,T1_M11,T2_M11,T3_M11,T4_M11,T5_M11,U1_M11,ZSPAN_M11,X0_M11,X2_M11,X1_M11
2021-12-14 00:00:00,,0823.9,5.00,0.00,30.5,29.6,00.0,39.5,32.2,06.4,0004.6,0028.32,0007.01,0004.77
2021-12-14 00:01:00,,0824.0,4.99,0.00,30.5,29.5,00.0,39.5,32.2,06.3,0005.4,0027.47,0007.04,0004.77
2021-12-14 00:02:00,,0824.0,5.01,0.00,30.5,29.5,00.0,39.4,32.2,06.3,0005.9,0028.13,0007.01,0004.77
2021-12-14 00:03:00,,0824.0,5.00,0.00,30.5,29.5,00.0,39.4,32.1,06.3,0006.9,0028.87,0007.06,0004.77
2021-12-14 00:04:00,,0824.0,5.00,0.00,30.5,29.5,00.0,39.4,32.1,06.4,0006.3,0028.14,0007.14,0004.79
2021-12-14 00:05:00,,0824.0,5.00,0.00,30.5,29.5,00.0,39.4,32.1,06.4,0006.6,0026.92,0007.14,0004.80
2021-12-14 00:06:00,,0824.0,5.00,0.00,30.4,29.5,00.0,39.4,32.1,06.4,0006.5,0028.12,0007.14,0004.81
2021-12-14 00:07:00,,0824.0,5.00,0.00,30.4,29.5,00.0,39.4,32.1,06.4,0005.7,0030.32,0007.16,0004.81
2021-12-14 00:08:00,,0823.9,5.00,0.00,30.4,29.5,00.0,39.4,32.1,06.4,0000.0,0030.35,0007.15,0004.81
2021-12-14 00:09:00,,0824.0,5.00,0.00,30.4,29.5,00.0,39.4,32.0,06.4,0000.0,0028.62,0007.09,0004.80
2021-12-14 00:10:00,,0824.0,5.01,0.00,30.4,29.5,00.0,39.4,32.0,06.3,0000.0,0029.89,0007.12,0004.80
2021-12-14 00:11:00,,0824.0,4.99,0.00,30.4,29.5,00.0,39.4,32.0,06.3,0000.0,0030.02,0007.23,0004.81
2021-12-14 00:12:00,,0824.0,4.99,0.00,30.4,29.4,00.0,39.4,32.0,06.3,0000.0,0029.52,0007.26,0004.83
2021-12-14 00:13:00,,0824.0,5.01,0.00,30.4,29.4,00.0,39.4,32.0,06.2,0000.0,0029.34,0007.20,0004.82
2021-12-14 00:14:00,,0824.0,5.00,0.00,30.4,29.4,00.0,39.4,32.0,06.2,0000.0,0027.83,0007.15,0004.80
2021-12-14 00:15:00,,0824.0,4.98,0.00,30.3,29.4,00.0,39.4,32.0,06.2,0000.0,0028.39,0007.07,0004.76
2021-12-14 00:16:00,,0824.0,5.00,0.00,30.3,29.4,00.0,39.4,31.9,06.1,0000.0,0030.08,0007.06,0004.73
2021-12-14 00:17:00,,0824.0,5.01,0.00,30.3,29.4,00.0,39.3,31.9,06.1,0000.0,0030.65,0006.99,0004.69
2021-12-14 00:18:00,,0824.0,5.01,0.00,30.3,29.3,00.0,39.3,31.9,06.1,0000.0,0028.31,0006.89,0004.65
2021-12-14 00:19:00,,0824.0,5.01,0.00,30.2,29.3,00.0,39.3,31.8,06.0,0000.0,0026.57,0006.76,0004.62
2021-12-14 00:20:00,,0824.0,5.00,0.00,30.2,29.2,00.0,39.3,31.7,05.5,0000.0,0025.97,0006.57,0004.52
2021-12-14 00:21:00,,0824.0,5.00,0.00,30.1,29.0,00.0,39.3,31.6,05.6,0000.0,0024.92,0006.30,0004.38
2021-12-14 00:22:00,,0824.0,4.98,0.00,30.0,29.0,00.0,39.2,31.5,06.1,0000.0,0025.01,0006.14,0004.32
2021-12-14 00:23:00,,0823.9,5.01,0.00,30.0,28.9,00.0,39.2,31.4,06.1,0000.0,0025.97,0006.12,0004.29
2021-12-14 00:24:00,,0823.9,4.99,0.00,29.9,28.9,00.0,39.2,31.4,06.2,0000.0,0025.31,0006.10,0004.28
2021-12-14 00:25:00,,0823.9,5.00,0.00,29.9,28.9,00.0,39.1,31.4,05.8,0000.0,0024.84,0006.03,0004.24
2021-12-14 00:26:00,,0824.0,5.00,0.00,29.9,28.9,00.0,39.1,31.4,05.4,0000.0,0023.02,0005.79,0004.10
2021-12-14 00:27:00,,0824.0,5.02,0.00,29.9,28.9,00.0,39.1,31.4,06.1,0000.0,0020.68,0005.68,0004.04
2021-12-14 00:28:00,,0824.0,4.99,0.00,29.8,29.0,00.0,39.1,31.4,06.3,0000.0,0020.00,0005.81,0004.07
2021-12-14 00:29:00,,0824.0,5.01,0.00,29.8,29.0,00.0,39.0,31.4,06.2,0000.0,0019.83,0005.86,0004.10
2021-12-14 00:30:00,,0823.9,5.00,0.00,29.8,29.0,00.0,39.0,31.4,06.0,0000.0,0020.24,0005.91,0004.11
2021-12-14 00:31:00,,0824.0,5.01,0.00,29.8,29.0,00.0,39.0,31.4,05.6,0000.0,0020.73,0005.93,0004.09
2021-12-14 00:32:00,,0823.9,4.98,0.00,29.8,29.0,00.0,39.0,31.4,05.6,0000.0,0020.06,0005.96,0004.11
2021-12-14 00:33:00,,0823.8,5.00,0.00,29.8,29.0,00.0,39.0,31.4,05.1,0000.0,0018.89,0005.69,0003.97
2021-12-14 00:34:00,,0823.9,5.00,0.00,29.8,29.0,00.0,39.0,31.4,04.9,0000.0,0017.09,0005.29,0003.75
2021-12-14 00:35:00,,0824.0,5.00,0.00,29.8,29.0,00.0,38.9,31.4,05.0,0000.0,0015.29,0004.91,0003.51
2021-12-14 00:36:00,,0824.0,5.00,0.00,29.8,29.0,00.0,38.9,31.4,05.2,0000.0,0013.42,0004.64,0003.35
2021-12-14 00:37:00,,0824.0,4.99,0.00,29.8,28.9,00.0,38.9,31.4,05.7,0000.0,0013.25,0004.67,0003.38
2021-12-14 00:38:00,,0823.9,4.99,0.00,29.8,28.9,00.0,38.9,31.4,05.9,0000.0,0014.55,0004.76,0003.43
2021-12-14 00:39:00,,0824.0,5.00,0.00,29.8,28.9,00.0,38.9,31.4,06.2,0000.0,0014.17,0004.73,0003.44
2021-12-14 00:40:00,,0824.0,4.99,0.00,29.8,28.9,00.0,38.9,31.4,06.2,0000.0,0014.69,0004.81,0003.45
2021-12-14 00:41:00,,0823.9,5.01,0.00,29.8,28.8,00.0,38.9,31.4,06.3,0000.0,0016.29,0004.94,0003.47
2021-12-14 00:42:00,,0824.0,5.00,0.00,29.8,28.8,00.0,38.9,31.4,06.1,0000.0,0017.43,0005.07,0003.56
2021-12-14 00:43:00,,0823.9,4.99,0.00,29.8,28.8,00.0,38.9,31.5,06.0,0000.0,0019.68,0005.19,0003.65
2021-12-14 00:44:00,,0823.8,4.99,0.00,29.8,28.9,00.0,38.8,31.5,06.1,0000.0,0021.17,0005.49,0003.82
2021-12-14 00:45:00,,0823.7,5.01,0.00,29.8,28.9,00.0,38.8,31.5,06.1,0000.0,0023.31,0005.83,0004.04
2021-12-14 00:46:00,,0823.8,5.00,0.00,29.8,28.9,00.0,38.8,31.5,06.0,0000.0,0024.40,0006.20,0004.24
2021-12-14 00:47:00,,0823.8,4.99,0.00,29.8,28.9,00.0,38.8,31.5,05.9,0000.0,0026.48,0006.47,0004.39
2021-12-14 00:48:00,,0823.8,5.01,0.00,29.8,28.9,00.0,38.8,31.5,05.8,0006.1,0028.80,0006.60,0004.45
2021-12-14 00:49:00,,0823.9,4.99,0.00,29.8,28.9,00.0,38.8,31.5,05.4,0010.3,0027.86,0006.42,0004.34
2021-12-14 00:50:00,,0824.0,4.99,0.00,29.8,28.9,00.0,38.8,31.5,05.5,0000.0,0026.78,0006.16,0004.18
2021-12-14 00:51:00,,0823.9,5.01,0.00,29.8,28.9,00.0,38.8,31.4,06.0,0004.3,0025.92,0005.99,0004.10
2021-12-14 00:52:00,,0823.9,5.01,0.00,29.7,28.9,00.0,38.8,31.3,06.0,0008.0,0024.61,0005.79,0004.06
2021-12-14 00:53:00,,0823.9,4.99,0.00,29.7,28.8,00.0,38.8,31.3,05.9,0000.9,0022.81,0005.64,0003.99
2021-12-14 00:54:00,,0824.0,5.00,0.00,29.7,28.8,00.0,38.8,31.3,05.8,0003.8,0022.09,0005.63,0003.96
2021-12-14 00:55:00,,0823.9,5.00,0.00,29.7,28.8,00.0,38.7,31.3,05.7,0007.1,0022.30,0005.49,0003.90
2021-12-14 00:56:00,,0823.9,5.00,0.00,29.7,28.8,00.0,38.7,31.3,05.7,0003.3,0021.32,0005.37,0003.81
2021-12-14 00:57:00,,0823.8,5.01,0.00,29.7,28.8,00.0,38.7,31.3,05.5,0001.8,0021.31,0005.15,0003.69
2021-12-14 00:58:00,,0823.8,4.98,0.00,29.6,28.8,00.0,38.7,31.3,05.3,0000.0,0019.97,0004.85,0003.54
2021-12-14 00:59:00,,0823.8,5.00,0.00,29.6,28.7,00.0,38.7,31.2,05.4,0000.0,0017.34,0004.54,0003.39
